Theta_e
313 315 318 318 320 324 327 327 323 325 327 323 323 323 319 317 318 318 317 319 317 312 314 317 316 315 317 323 321 313 314 315 312 315 316 319 320 319 321 321 320 320 320 320 320 320 320 320 320 319 318 318 318 317 316 315 312 310 310 309 308 307 308 309 310 311 312 312 311 310 309 308 308 307 307 309 310 309 307 306 306 307 308 307 306 307
314 314 319 323 325 328 332 334 330 326 327 325 324 320 317 318 316 317 323 322 321 319 318 321 321 319 322 326 321 315 315 316 313 313 314 317 319 318 320 321 320 320 320 320 319 320 320 320 320 319 318 319 319 317 316 315 312 310 309 309 308 308 309 311 312 312 312 313 311 309 309 309 308 308 307 307 307 307 306 305 305 304 304 305 305 305
317 318 323 324 325 326 329 334 332 326 325 325 324 320 319 320 317 322 332 328 326 326 322 323 323 324 329 327 319 316 316 317 315 314 314 316 318 318 318 320 321 320 320 320 319 320 320 320 319 319 319 319 319 318 317 316 313 310 309 309 309 309 310 312 313 313 312 312 311 309 309 310 310 308 308 308 308 307 307 306 305 304 304 304 305 305
318 323 323 319 322 328 327 328 331 329 326 324 321 319 321 322 319 322 329 330 330 325 319 323 324 327 333 328 322 317 314 315 316 316 315 315 317 318 318 320 321 320 320 320 319 320 320 319 319 319 319 320 319 318 318 317 314 311 310 309 309 309 310 311 313 313 313 312 311 309 310 310 310 310 309 309 309 308 307 307 306 306 305 303 304 305
317 321 320 319 325 331 324 322 331 329 325 328 325 318 319 322 320 320 324 329 334 330 326 324 323 335 341 328 322 320 314 315 315 315 316 315 316 317 317 318 320 321 320 320 320 320 320 320 319 319 319 320 319 319 318 318 315 312 311 310 309 309 310 310 312 314 314 313 311 310 310 310 310 310 309 309 309 309 308 308 307 307 306 304 304 304
317 315 316 322 326 327 323 323 332 330 323 327 331 326 323 324 323 322 323 325 327 327 330 322 319 337 344 328 324 323 319 318 315 313 315 314 316 315 316 317 319 320 319 319 320 320 320 320 319 320 320 320 319 319 319 318 317 314 312 312 310 310 310 310 310 313 314 313 310 310 310 310 310 310 310 310 309 309 308 308 308 307 307 306 305 304
319 317 318 323 325 324 322 321 326 330 323 321 330 333 327 325 324 322 322 322 322 322 326 322 317 329 335 325 324 324 322 322 318 315 315 313 315 315 316 317 318 318 318 319 320 320 320 320 320 320 320 320 319 319 319 319 318 315 313 313 312 311 311 311 310 311 313 313 311 311 311 311 311 311 310 310 309 309 308 308 308 308 307 307 306 305
320 320 320 322 323 322 321 321 324 329 325 322 331 332 324 323 322 323 322 321 323 322 324 328 319 320 325 323 322 321 319 322 320 319 317 313 314 315 316 317 317 317 318 318 320 320 320 320 319 320 320 320 320 319 320 319 318 317 315 314 314 313 312 311 310 310 311 312 311 311 312 311 311 311 311 311 310 309 309 308 309 308 308 307 307 306
321 321 322 323 322 320 323 328 329 326 321 326 336 329 322 324 324 326 325 321 323 318 322 333 324 316 324 327 324 320 318 321 320 321 320 315 313 315 316 317 318 317 317 318 319 319 319 319 319 319 320 319 320 320 320 320 319 318 317 315 315 315 313 312 312 311 311 311 312 312 312 312 312 312 312 312 311 310 309 309 308 308 308 308 307 307
319 319 323 324 322 323 328 329 328 324 320 327 332 322 322 327 325 325 322 321 326 320 319 331 326 316 323 328 325 319 317 321 322 321 319 314 313 315 315 316 317 317 317 318 318 319 319 319 319 319 319 320 320 320 320 320 319 318 318 317 316 316 315 313 312 312 312 312 312 312 313 312 312 312 313 312 312 311 310 309 309 309 308 308 308 307
314 313 318 320 320 326 327 322 321 321 320 321 320 317 324 329 327 329 327 321 321 322 322 324 322 318 320 326 327 321 319 320 319 319 318 315 313 315 315 316 317 317 316 317 318 318 319 319 319 318 319 320 320 320 320 320 319 318 318 318 317 317 315 314 313 314 314 313 313 313 313 313 312 312 313 312 312 311 311 309 309 309 308 308 308 308
317 314 316 317 316 318 318 316 315 315 317 319 318 318 322 325 328 332 330 320 316 322 326 322 320 319 318 322 325 321 321 320 317 318 320 319 314 314 315 316 316 316 316 316 317 318 319 319 320 320 320 320 320 320 321 320 319 319 319 319 318 318 317 316 314 314 315 315 314 313 313 313 313 313 313 313 313 312 311 310 309 309 308 308 308 308
321 318 316 315 315 314 314 316 315 315 319 318 319 320 320 319 321 325 325 322 319 321 324 322 319 318 319 320 319 319 321 318 316 316 318 318 314 313 316 316 316 317 316 316 316 317 319 319 320 320 320 320 320 320 321 320 320 319 320 320 320 319 318 317 315 314 316 317 315 314 313 313 313 314 314 314 313 313 311 310 309 309 308 308 308 307
321 323 320 314 315 315 314 315 315 317 318 314 316 320 321 318 315 319 321 319 318 319 322 322 318 320 323 321 319 321 319 315 314 314 315 316 315 315 316 316 316 317 316 316 316 317 318 319 319 320 319 320 319 320 320 319 319 319 320 321 321 320 319 317 316 314 315 317 316 315 314 313 314 314 314 314 313 313 312 310 310 309 308 308 308 308
317 322 324 317 316 315 313 314 315 320 320 316 317 316 318 322 320 319 319 316 317 320 322 319 317 323 326 321 320 318 313 314 314 314 315 315 314 315 315 316 315 316 316 316 316 317 318 318 319 319 319 320 319 319 320 319 319 319 320 321 321 320 320 318 316 314 314 316 317 316 314 313 314 314 314 314 314 313 312 311 310 309 309 308 308 308
313 318 324 317 313 313 311 312 313 316 317 317 316 313 315 321 323 320 319 320 321 322 322 319 320 327 325 321 320 314 312 315 313 314 315 314 315 315 314 315 314 315 316 316 317 317 317 318 318 318 318 318 319 319 319 319 319 319 320 321 321 320 320 318 317 315 313 315 317 317 315 313 314 314 314 313 313 313 312 311 311 309 309 308 308 307
314 319 323 315 312 313 311 313 311 310 316 318 314 314 315 316 316 317 320 322 320 318 320 318 320 325 321 320 322 315 314 315 313 314 314 313 315 314 314 315 314 314 315 316 318 317 317 318 318 318 318 318 319 319 319 319 319 320 320 320 320 320 319 319 318 316 314 314 316 317 315 314 314 313 312 312 313 313 312 312 310 309 309 308 308 307
320 324 323 315 314 314 310 312 314 310 313 317 315 315 318 318 318 319 321 323 318 318 321 319 319 322 321 321 322 316 315 315 314 314 313 312 313 312 313 313 312 314 314 314 316 317 318 318 317 318 318 318 319 319 319 320 320 320 320 320 320 320 319 319 318 317 314 314 315 315 314 314 313 312 311 311 311 312 312 311 310 310 309 309 308 307
322 324 323 317 313 314 313 313 316 314 310 311 313 315 318 320 321 318 318 320 318 317 322 323 319 319 320 321 319 316 316 315 314 315 314 313 312 310 311 310 309 312 313 315 316 316 318 319 319 318 318 318 319 319 320 320 320 320 320 320 320 319 318 318 319 318 315 315 315 314 313 313 312 311 310 311 310 311 311 311 310 310 309 309 308 307
321 320 321 322 314 312 318 316 315 316 312 311 311 313 317 320 320 317 317 318 318 317 319 322 319 319 324 322 317 316 317 315 315 316 316 313 311 310 309 309 308 309 309 311 313 315 316 318 319 320 320 319 319 319 320 320 320 321 320 321 320 319 319 319 319 318 315 315 315 313 313 313 311 310 310 310 310 310 310 310 310 310 310 309 308 307
321 317 321 326 318 314 319 317 312 313 312 311 313 314 317 319 317 317 317 317 319 320 320 320 320 323 327 323 318 317 316 314 315 316 315 311 309 309 309 308 308 307 307 307 308 311 313 315 318 319 320 321 320 321 320 320 320 321 321 321 320 319 319 318 319 318 316 315 314 313 313 313 311 310 310 310 310 309 309 309 309 309 309 309 308 307
321 320 321 323 319 317 318 315 310 310 311 311 312 313 313 316 316 315 316 318 322 324 323 321 321 324 326 322 320 318 315 313 312 312 311 310 308 309 309 309 308 308 307 305 305 307 309 311 314 316 319 320 320 321 321 321 321 321 321 320 320 319 319 318 319 318 317 315 313 313 313 312 310 310 310 310 310 310 309 309 309 309 309 309 308 307
320 320 318 317 317 315 313 311 309 309 310 310 312 314 313 316 318 315 318 322 321 320 321 319 319 322 323 321 320 317 312 310 309 309 309 309 309 309 309 309 309 308 307 306 306 306 307 308 310 312 316 318 320 320 320 321 321 321 321 320 320 319 319 319 319 318 317 316 314 314 313 312 311 310 310 310 310 310 309 309 309 308 308 308 308 307
317 318 315 316 319 315 314 316 313 312 313 311 313 316 313 313 316 316 318 322 320 317 319 318 318 323 325 321 315 310 308 308 308 308 309 309 309 309 308 308 308 307 307 306 307 308 307 308 308 309 312 316 319 320 320 321 321 320 320 319 319 319 319 319 319 318 318 316 315 314 313 312 311 311 310 310 310 310 309 309 309 308 308 308 307 307
314 317 315 314 316 315 315 317 317 319 320 313 310 313 311 310 312 314 318 319 317 318 320 319 319 324 325 319 312 310 309 309 308 308 309 309 308 308 308 308 307 307 307 307 307 308 308 309 309 309 309 311 315 318 319 320 320 319 319 319 320 319 319 319 319 319 318 317 316 314 313 312 312 311 311 310 310 310 309 309 309 308 308 308 308 307
314 318 316 313 313 312 312 314 315 318 318 311 308 309 309 307 309 313 314 314 316 318 318 318 320 322 319 314 313 314 312 310 309 308 308 308 308 307 307 306 307 307 308 308 309 309 309 309 310 310 310 310 311 315 318 319 320 320 319 319 320 320 320 320 320 319 318 317 317 315 313 312 312 312 311 310 310 310 309 309 309 309 308 308 307 306
315 316 317 317 315 311 311 313 315 314 312 310 309 308 307 309 312 315 312 312 317 318 315 317 319 316 313 312 312 313 312 313 312 308 308 308 307 307 307 306 307 308 308 309 309 309 310 309 309 310 309 309 310 312 315 317 318 320 320 320 320 320 319 319 320 321 319 318 318 316 314 313 312 312 311 310 310 310 309 309 309 308 308 307 306 304
313 311 314 316 314 311 310 310 311 311 309 309 309 308 307 309 312 313 311 313 317 313 311 318 319 313 311 310 309 310 311 312 311 308 307 307 307 307 308 308 308 308 309 309 309 309 308 308 309 309 308 308 309 309 311 313 315 317 319 319 319 319 319 318 320 322 321 320 320 317 315 314 312 313 312 311 310 310 310 309 308 308 308 306 305 304
312 311 314 314 311 310 309 309 309 309 308 308 308 309 309 308 309 310 311 314 314 311 311 315 314 310 310 308 308 310 310 309 308 307 307 307 307 308 309 309 309 309 309 308 308 308 307 307 308 308 308 308 308 308 309 310 312 315 317 319 318 319 319 318 319 321 322 322 321 319 316 313 314 315 313 312 311 311 310 309 308 308 306 305 304 303
310 313 315 311 309 309 308 308 309 307 307 307 307 308 309 309 310 310 311 313 312 311 312 311 309 310 309 308 308 308 307 307 307 307 308 308 309 309 309 309 309 309 308 308 308 308 308 308 308 308 308 308 308 309 310 309 310 311 314 317 320 321 322 323 322 323 323 323 323 322 319 318 317 316 315 312 311 311 310 309 309 307 305 304 304 304
307 312 313 308 307 311 310 309 308 307 308 308 306 307 308 309 311 309 309 309 308 309 311 310 309 311 309 306 305 305 305 307 307 308 309 309 309 309 309 309 309 308 308 308 308 308 309 309 308 308 308 308 308 309 309 309 310 310 311 314 317 320 323 324 323 323 323 323 323 322 320 320 320 318 315 313 312 311 310 309 308 306 304 304 304 304
307 310 312 309 308 311 311 309 308 307 308 307 305 306 306 307 310 308 308 309 307 307 309 307 308 311 307 304 305 306 306 308 308 308 309 309 309 309 308 308 308 308 308 308 308 309 309 309 308 308 307 308 309 309 308 307 308 309 309 310 312 315 319 322 322 320 320 320 321 320 319 320 320 318 315 313 312 312 311 309 307 305 304 304 304 304
308 307 310 309 308 309 310 308 308 307 307 308 310 312 310 308 308 307 308 310 308 306 307 309 311 311 307 307 310 310 307 307 308 309 308 308 308 308 308 308 308 308 308 308 308 308 308 308 308 308 308 308 309 308 308 307 307 307 307 307 308 310 314 318 321 320 318 318 320 320 319 319 318 317 315 313 312 311 310 308 306 304 304 304 304 305
307 305 307 308 307 309 310 307 308 308 306 309 315 318 314 310 309 308 308 310 309 307 309 312 312 310 307 309 311 310 308 307 307 307 307 307 307 307 308 308 308 307 307 307 307 307 307 307 307 307 307 307 307 307 307 306 306 306 306 307 309 309 310 313 317 319 318 318 319 320 319 318 316 315 314 313 312 311 309 307 305 304 305 305 305 305
306 306 308 307 306 309 309 306 306 306 305 308 313 313 311 309 309 309 309 309 309 309 310 310 309 309 307 307 307 306 306 305 304 305 307 307 307 307 307 306 306 306 306 306 306 307 307 307 307 306 306 305 305 305 305 305 305 304 305 308 310 311 310 311 315 318 319 319 320 319 318 317 315 314 313 312 312 311 308 305 304 305 306 306 305 305
305 305 306 307 307 307 307 306 305 305 305 307 309 309 307 308 310 309 308 309 309 310 312 310 309 308 306 305 305 305 305 304 303 304 306 306 305 305 305 305 305 304 305 306 306 307 307 307 307 307 306 305 304 304 304 304 304 304 305 308 311 312 312 312 315 318 319 319 319 318 317 316 314 313 313 312 311 309 306 305 306 306 306 306 305 304
304 305 305 306 307 306 306 307 307 306 305 305 308 308 306 308 312 311 310 310 308 308 310 311 310 307 305 305 306 305 305 303 302 303 304 303 303 304 304 304 304 304 305 305 306 307 307 307 307 306 306 305 304 304 304 304 305 305 306 308 311 312 312 313 315 317 318 318 318 317 316 314 312 311 311 310 308 307 306 306 306 306 305 305 304 304
303 305 305 306 306 305 305 306 305 305 305 306 309 311 307 307 310 310 309 309 307 305 306 308 309 308 305 305 305 305 305 304 303 303 303 302 303 304 303 303 304 304 304 305 306 306 306 306 306 306 305 305 304 304 306 307 307 307 308 309 310 312 313 314 315 316 317 317 317 316 314 312 311 309 309 308 307 306 306 306 306 305 305 304 304 303
304 305 304 305 306 306 305 304 304 305 305 306 308 308 306 304 305 306 308 309 307 303 303 305 306 306 305 305 305 305 305 306 305 303 302 303 304 304 303 304 304 305 305 305 306 306 306 306 306 305 304 304 305 306 307 309 309 309 310 311 311 312 313 314 315 316 317 316 315 313 311 309 309 309 307 306 305 305 305 305 305 304 303 302 301 299
306 307 306 304 305 306 306 306 305 305 305 306 307 306 305 304 304 305 308 309 306 302 302 304 304 304 305 304 305 306 307 307 305 303 303 305 304 303 304 305 305 305 305 305 305 305 305 305 304 304 305 305 307 307 308 309 310 310 311 312 312 312 314 314 315 316 316 314 313 312 309 307 308 308 306 304 303 304 305 304 303 302 300 299 298 297
305 307 307 306 305 305 305 306 306 306 305 306 306 305 303 304 304 305 307 308 304 302 303 304 304 304 305 304 305 306 307 305 304 303 303 303 303 303 304 304 304 305 305 304 304 304 303 304 304 305 306 306 307 307 308 309 310 310 311 312 312 313 314 314 315 315 313 311 310 309 308 307 307 306 305 304 303 303 302 300 299 298 297 297 297 297
303 303 306 306 305 306 306 306 305 305 305 305 305 303 302 304 306 307 307 304 302 302 303 303 303 303 304 304 304 304 303 302 303 303 302 302 302 303 304 304 305 305 304 304 303 303 304 304 305 306 306 307 307 307 308 310 310 310 311 312 313 313 314 313 312 312 310 308 308 308 307 306 306 305 304 303 301 300 298 297 297 297 297 297 297 297
301 301 304 304 303 304 305 304 304 303 303 303 303 303 303 304 305 305 303 302 302 303 303 303 303 303 303 303 303 303 303 303 303 303 302 302 302 303 304 305 305 305 304 304 302 303 305 306 305 305 306 306 306 307 308 309 309 310 311 312 312 313 313 311 309 309 308 308 307 306 305 305 304 303 301 299 298 297 297 297 297 297 297 297 297 297
301 301 302 302 302 303 303 303 302 302 301 301 302 303 303 303 303 302 302 303 304 303 303 303 304 303 303 304 304 304 304 304 304 303 303 302 303 304 304 305 304 304 304 303 303 304 306 305 305 305 306 306 306 306 307 308 309 310 310 310 310 310 310 308 307 307 307 306 305 304 303 303 301 300 298 297 297 298 298 298 298 297 297 297 296 296
301 300 301 302 303 302 301 301 301 300 299 300 301 302 301 301 301 302 302 302 302 302 302 302 303 303 303 304 304 304 304 304 304 304 303 303 304 304 304 304 304 304 303 303 304 305 305 305 305 305 305 306 306 305 306 307 308 308 307 306 307 307 307 307 307 306 305 304 303 302 301 300 299 298 297 298 298 298 298 298 298 297 296 296 296 296
299 298 299 301 302 301 299 299 299 298 298 299 300 300 301 300 300 300 300 301 301 301 301 301 302 303 303 303 304 304 304 304 304 304 304 304 304 304 304 304 304 303 302 303 304 305 305 304 305 305 305 305 305 305 305 305 305 305 305 305 305 305 305 305 305 304 302 302 301 300 300 299 298 298 298 298 298 298 299 298 298 297 296 296 296 296
298 297 297 298 300 300 300 300 299 298 298 299 299 300 300 299 300 300 300 300 300 300 301 301 302 302 302 302 303 303 303 303 303 303 304 304 304 304 304 303 303 302 303 304 305 305 305 304 305 305 305 305 305 305 305 304 304 304 304 304 304 304 304 303 302 302 301 300 300 300 299 299 299 298 299 299 299 299 299 298 298 297 297 297 296 295
298 298 298 299 299 298 299 300 298 297 298 298 298 299 299 299 300 300 300 300 300 300 301 302 302 302 301 300 301 301 302 303 302 303 304 304 304 304 303 303 302 302 303 304 305 305 304 305 305 305 305 305 306 306 305 303 303 303 303 303 303 303 302 302 302 301 300 299 299 299 299 299 299 299 299 299 299 299 299 298 298 297 297 297 296 293
297 298 299 299 299 298 298 298 297 298 298 298 298 298 298 299 299 299 299 300 300 300 301 301 301 301 301 300 301 302 302 302 302 303 303 303 304 303 303 302 302 302 303 304 304 304 304 305 305 304 305 306 306 306 304 303 302 303 302 302 303 303 303 303 302 301 300 300 300 299 299 299 299 299 299 299 299 299 298 298 298 298 297 296 294 292
297 298 298 298 298 298 298 297 297 298 298 297 297 298 298 299 299 299 300 300 300 300 300 301 301 301 301 301 302 303 303 303 303 303 303 303 303 303 302 302 302 303 303 304 304 304 304 304 304 305 305 306 306 306 304 303 302 302 302 302 303 303 303 302 301 300 300 300 300 300 299 299 299 299 299 299 299 298 298 298 298 297 296 294 292 292
297 297 297 298 298 298 297 297 297 297 297 297 298 298 299 299 299 299 299 299 300 300 300 301 301 301 301 301 302 303 303 303 303 303 303 303 303 302 302 302 302 303 303 303 303 303 304 304 305 305 305 305 306 305 303 302 302 302 302 302 302 302 302 301 301 300 300 300 300 300 299 299 299 299 299 299 298 298 298 297 296 295 293 292 292 292
Wind_Speed
3 2 2 4 6 7 7 7 8 5 5 4 1 2 2 1 3 5 4 7 2 5 0 2 4 6 6 6 6 6 3 7 13 19 25 30 32 33 34 36 39 41 41 39 37 35 33 30 27 27 26 24 22 21 19 17 15 13 12 12 12 13 13 14 14 13 12 9 6 6 6 7 7 6 5 5 3 1 1 2 4 6 6 7 8 8
1 3 6 9 10 9 6 4 6 4 4 4 3 1 3 0 3 6 3 7 4 5 3 4 3 6 6 5 7 6 3 5 10 12 21 29 31 32 35 37 39 41 39 38 39 37 34 32 30 30 30 29 27 25 22 19 17 16 14 13 13 14 14 14 14 14 13 9 5 4 5 5 6 6 6 6 7 7 6 4 2 2 2 4 5 7
1 3 10 12 8 5 2 2 5 4 5 4 2 2 4 2 2 6 5 7 6 5 2 3 4 5 7 6 6 5 5 8 13 14 18 26 31 30 33 36 38 37 35 37 40 39 37 35 34 34 33 32 30 27 23 20 19 18 17 15 14 15 15 15 16 16 13 10 7 4 4 3 3 4 4 5 8 10 10 8 7 6 5 3 4 5
2 6 12 10 6 5 3 1 5 4 3 3 3 3 3 3 1 2 5 6 5 2 2 2 4 5 6 6 4 7 10 9 12 16 17 19 29 34 35 38 39 36 34 37 40 41 39 38 37 37 36 35 32 28 25 23 21 20 19 18 16 16 15 15 16 17 14 12 9 5 4 4 3 4 3 4 7 9 10 10 10 9 8 6 3 5
6 10 9 3 6 8 5 1 4 4 1 2 2 4 3 5 2 4 4 5 6 5 1 4 6 5 4 5 6 5 4 5 10 14 18 21 25 32 33 35 39 38 36 40 42 42 42 41 40 40 39 37 34 31 27 25 22 20 20 19 18 17 16 15 15 16 15 14 11 9 8 7 5 6 4 3 6 7 8 10 10 11 10 8 5 2
8 14 9 2 6 8 7 5 4 5 1 4 3 6 6 6 5 3 1 4 5 5 4 2 2 5 5 3 6 6 4 5 7 9 18 28 24 23 26 29 36 38 39 41 43 45 44 42 42 42 41 39 36 33 29 25 21 19 20 20 19 18 17 15 14 16 17 15 13 10 9 8 6 5 3 2 3 4 6 8 9 10 10 9 8 6
5 8 6 5 6 7 5 4 4 5 4 2 4 6 6 5 4 2 1 3 2 2 4 2 3 4 6 4 7 6 5 7 7 5 16 27 23 19 26 32 36 37 38 40 43 46 45 43 43 43 43 41 38 35 31 26 21 20 20 20 20 20 18 16 15 17 18 18 15 12 9 7 6 5 3 1 1 1 3 5 7 8 9 9 9 8
3 3 2 5 4 4 2 2 4 5 7 2 6 6 4 3 3 2 4 5 3 3 4 4 3 3 4 5 7 5 5 8 9 7 11 20 22 22 28 35 37 35 35 38 43 46 45 44 44 44 44 42 39 36 32 28 23 21 21 20 20 20 19 17 17 17 18 18 16 13 10 9 8 5 2 2 2 2 1 2 4 5 7 8 8 8
3 2 4 6 4 3 3 5 6 6 5 6 7 5 4 4 5 4 5 3 1 2 4 6 1 1 5 5 5 3 4 7 10 10 9 14 23 26 29 33 34 33 32 34 39 43 45 44 44 44 44 43 40 37 34 30 25 23 21 20 20 21 20 18 18 18 18 18 16 13 12 11 8 6 5 5 4 4 3 2 2 3 4 6 7 7
3 6 7 6 5 4 5 6 6 7 3 6 4 2 1 3 3 3 5 3 3 4 3 7 0 0 5 6 4 2 3 6 8 9 9 15 24 28 30 32 31 30 30 32 36 40 43 44 42 43 43 42 40 38 35 31 27 24 23 21 21 21 20 18 18 19 19 19 17 14 13 12 10 8 8 8 7 6 6 6 3 2 2 4 5 6
6 7 7 4 5 6 6 6 5 8 6 2 3 1 4 5 4 3 3 4 4 2 6 7 3 3 3 6 4 3 4 5 6 8 9 12 21 28 31 32 32 31 29 30 34 38 40 41 42 42 42 41 40 38 35 31 29 27 25 23 23 22 20 18 18 19 19 20 19 16 15 13 11 10 10 10 9 8 8 7 5 4 2 2 2 3
5 2 3 3 7 7 4 3 3 2 2 4 3 2 3 4 4 5 4 4 2 4 7 5 3 5 2 5 5 5 6 6 5 8 10 7 15 25 29 32 35 35 32 29 31 36 39 42 44 44 42 41 39 38 36 34 32 29 27 26 25 23 21 18 18 19 19 20 20 18 16 14 12 12 12 11 10 9 9 8 7 6 4 3 2 2
4 3 3 3 6 7 4 2 4 4 4 6 4 4 4 2 4 4 4 1 1 6 6 3 2 4 4 8 8 8 8 8 6 9 12 9 15 23 29 34 36 37 36 31 29 33 38 42 44 45 44 42 40 39 38 36 34 32 30 29 27 25 21 19 18 19 20 21 20 19 17 15 14 14 14 13 11 10 10 9 8 8 6 5 4 4
4 5 4 3 3 4 5 3 2 3 2 4 4 3 4 2 2 2 4 2 2 5 6 4 2 2 4 5 7 7 8 10 12 12 13 10 14 22 29 32 33 35 36 35 32 32 36 39 41 42 43 43 41 40 39 38 37 34 32 31 29 26 22 20 20 20 21 21 21 20 18 15 15 15 14 13 12 11 11 10 10 9 8 7 6 5
1 5 3 1 2 3 4 5 6 5 2 4 5 5 4 4 3 3 3 3 4 4 4 3 2 2 2 4 6 4 7 11 13 15 17 15 9 9 17 21 25 29 32 33 33 33 35 36 36 38 40 40 40 40 40 39 38 36 34 33 31 28 25 22 21 22 23 22 22 21 18 16 15 14 14 13 13 13 13 12 12 11 10 9 8 7
3 5 6 2 1 2 0 3 2 4 0 3 3 5 2 4 5 3 3 5 4 1 3 2 2 4 4 5 7 7 10 16 22 24 24 22 20 17 12 9 7 16 22 27 30 33 35 35 35 37 37 38 39 41 42 41 39 38 36 33 31 29 26 24 23 23 23 23 23 22 19 16 15 15 14 15 15 15 15 14 14 13 11 11 10 9
3 4 6 3 2 3 3 6 3 3 3 2 2 3 3 3 6 3 2 1 3 1 4 1 3 5 3 5 6 8 10 12 16 18 20 24 27 27 27 28 20 9 4 16 25 31 34 35 36 37 37 37 39 41 42 42 41 38 36 34 32 29 28 27 25 25 24 24 23 23 20 17 16 15 14 15 15 16 16 16 15 14 14 13 12 10
4 2 6 3 3 2 5 7 4 1 2 2 1 5 3 2 4 2 1 3 3 2 5 1 3 5 2 3 5 9 10 9 10 11 14 22 26 25 26 31 32 27 18 4 11 22 31 35 35 36 38 38 39 41 41 41 41 39 36 34 32 30 29 29 28 26 25 25 24 23 20 18 16 15 14 14 15 16 16 17 17 16 15 14 12 12
3 0 6 3 1 5 7 7 4 7 7 5 1 3 0 1 1 0 1 1 1 2 4 4 4 3 2 3 2 7 7 7 9 11 11 14 19 22 25 30 33 32 28 21 11 4 19 30 35 36 38 40 41 41 41 41 41 40 38 36 32 29 29 29 29 27 26 26 25 23 20 18 17 15 14 13 14 15 15 16 16 16 15 14 14 14
3 2 5 4 1 3 6 4 1 5 7 5 3 3 1 2 3 3 2 3 3 3 2 3 4 2 4 5 3 5 5 6 7 8 8 10 16 22 25 29 32 31 29 27 25 18 5 14 28 33 36 38 41 42 42 42 42 41 39 38 34 31 30 30 30 29 28 27 25 23 21 19 18 16 15 14 14 14 14 14 15 15 15 15 15 15
3 3 3 5 4 3 3 0 3 1 3 4 5 5 4 2 0 0 1 2 4 3 3 1 3 4 5 4 6 7 6 6 7 6 6 9 17 22 24 27 30 30 30 30 28 25 20 10 9 21 29 32 34 39 41 42 42 42 40 39 36 34 32 32 31 30 29 27 26 24 22 21 20 18 16 15 14 14 13 14 14 14 15 15 16 15
1 1 2 2 3 1 4 4 2 1 2 2 2 3 3 3 1 1 3 2 2 3 4 4 3 6 5 3 5 7 7 6 7 8 7 9 15 18 22 25 27 30 32 30 27 24 23 21 15 9 18 27 30 34 38 41 42 42 41 39 37 36 35 33 32 32 30 28 26 25 24 23 22 20 18 16 16 15 14 14 14 14 15 16 16 16
2 3 2 1 3 4 6 7 4 3 2 3 2 2 1 1 2 3 3 3 0 1 2 3 2 6 5 2 6 7 7 8 10 11 9 9 13 16 20 23 25 28 30 28 25 23 23 22 19 15 10 18 28 32 35 38 41 42 40 39 38 38 36 35 34 33 31 29 28 26 26 25 25 23 20 18 17 16 15 14 14 15 15 16 16 16
1 3 2 2 3 4 6 7 5 5 3 2 1 2 3 3 2 4 5 3 3 3 1 2 2 6 5 1 6 9 9 10 11 12 11 11 12 14 17 21 23 25 26 25 23 22 21 21 19 16 14 11 20 28 32 37 39 39 37 38 40 39 38 37 36 34 33 31 29 28 28 27 27 25 23 20 18 17 16 15 15 15 15 16 16 16
1 0 2 2 4 5 7 6 6 6 4 2 2 2 3 3 3 1 1 1 1 4 5 5 4 6 5 3 3 6 6 7 8 10 11 11 13 15 17 20 21 22 22 21 20 20 18 19 19 16 14 11 12 20 27 32 35 37 37 39 41 41 40 39 38 36 36 34 32 30 30 29 29 28 25 22 20 18 17 16 16 16 15 16 16 15
2 1 3 2 3 4 1 1 2 3 3 2 2 2 1 3 4 2 1 2 1 3 3 4 4 6 6 5 5 4 5 6 8 11 12 12 14 18 21 22 20 19 18 17 17 17 16 16 17 16 15 13 9 12 21 28 33 37 39 40 42 41 39 39 40 40 39 38 36 33 31 31 31 30 27 23 21 19 17 16 16 16 15 15 15 14
2 1 2 5 6 6 5 6 5 3 3 5 7 8 3 2 2 2 2 1 3 1 2 4 5 6 9 5 7 7 7 6 8 10 11 13 16 18 19 18 18 16 15 14 13 14 15 17 18 18 19 19 14 9 12 20 29 36 39 40 41 41 40 40 44 45 43 41 39 36 34 33 32 31 28 24 22 20 18 16 16 16 15 14 14 13
4 2 3 4 6 7 7 7 6 4 6 8 9 12 7 3 5 3 3 5 3 2 5 7 4 5 8 2 5 4 4 3 5 6 9 13 14 14 13 13 14 15 16 16 16 17 19 20 21 20 20 21 19 15 12 11 17 28 37 40 41 42 43 43 46 49 47 45 42 39 35 34 33 32 28 24 23 21 18 17 15 15 14 13 12 11
4 2 4 4 4 6 5 6 7 5 6 7 8 11 8 2 5 6 6 5 5 4 7 7 4 6 9 2 4 5 5 4 5 6 7 9 10 11 12 12 14 15 17 19 20 21 21 21 21 21 20 21 21 21 20 17 16 19 28 37 40 42 45 47 50 51 50 47 46 43 39 36 34 32 28 25 23 21 18 16 15 14 13 11 10 10
3 3 4 2 2 5 4 6 8 7 7 9 10 8 6 5 6 6 6 6 6 7 9 7 6 8 9 5 6 6 6 5 4 5 7 9 9 9 9 11 13 15 17 19 19 19 19 19 20 20 20 20 19 19 19 19 18 17 20 27 34 39 41 44 48 51 52 51 49 44 39 37 34 31 28 25 23 20 17 16 15 13 11 10 10 10
2 2 3 3 2 5 6 7 8 6 7 9 7 2 2 4 6 5 6 5 4 6 7 6 6 7 6 6 3 1 1 2 6 9 10 10 9 9 10 11 13 15 16 17 17 17 17 18 20 22 22 21 19 17 18 19 17 15 16 20 26 33 37 39 39 40 44 49 48 41 35 34 32 28 26 24 21 19 17 15 13 11 10 10 10 11
3 3 3 5 2 5 6 7 5 4 7 9 5 2 3 6 6 4 5 4 4 6 5 4 5 5 5 5 3 6 8 8 8 9 10 11 9 10 12 12 13 13 14 14 15 17 18 20 22 24 25 24 23 23 23 23 21 20 19 19 22 27 33 38 37 34 33 37 39 36 33 32 30 26 25 23 20 19 16 13 10 9 10 11 11 12
1 1 1 2 0 4 5 4 3 6 7 9 6 6 8 8 6 3 4 4 4 4 4 4 5 6 4 3 3 5 6 7 7 8 10 10 10 10 10 10 9 9 12 14 16 17 18 20 22 23 24 25 26 27 29 28 27 26 25 24 23 25 30 35 39 39 36 35 36 34 31 31 29 27 25 22 20 18 14 11 10 10 10 11 12 13
3 2 2 2 2 4 6 3 6 4 6 8 6 6 8 6 5 3 3 5 5 3 3 4 4 3 2 2 4 3 4 5 5 7 7 8 8 8 8 9 10 12 15 17 19 20 21 23 24 25 25 26 28 30 32 33 33 32 29 26 25 25 28 33 37 40 40 39 39 36 33 32 30 28 25 22 20 17 13 11 10 10 10 12 13 15
4 4 3 2 3 3 2 3 2 7 7 5 3 3 3 4 4 4 3 4 5 3 4 4 2 2 2 3 3 3 6 7 6 5 4 3 5 8 10 13 16 19 21 22 23 24 25 26 28 30 31 31 32 33 34 35 37 36 31 26 25 26 28 32 37 41 42 41 40 38 35 33 30 28 25 21 19 16 12 10 9 10 12 14 16 18
6 5 3 2 2 2 1 3 5 7 5 4 6 7 6 1 2 1 4 3 4 3 4 7 5 5 4 2 2 5 8 10 5 3 3 3 6 10 15 19 21 22 23 23 24 25 26 28 30 32 34 35 34 35 35 35 36 35 32 28 25 27 30 33 37 41 42 42 41 38 35 31 27 24 22 19 17 14 11 10 10 11 14 16 18 20
8 5 3 3 3 3 3 4 3 6 7 6 5 6 6 4 5 4 4 5 5 3 4 6 4 4 3 2 5 9 13 14 5 4 2 8 13 15 19 22 22 23 23 24 25 26 27 29 31 33 35 36 37 36 35 34 33 32 32 30 28 28 32 36 39 42 43 42 40 37 33 29 25 22 20 17 14 12 11 11 12 14 16 17 19 20
8 7 6 4 4 3 3 4 3 4 6 5 5 6 6 1 6 7 3 3 5 3 3 4 2 3 4 6 10 12 14 12 5 4 9 17 21 23 25 26 24 24 24 25 25 27 29 31 33 35 36 38 39 37 32 31 31 30 31 32 31 30 34 38 42 43 44 43 40 37 33 29 24 22 20 16 13 12 13 14 14 15 15 16 18 18
4 5 6 4 3 3 4 4 4 4 5 4 4 8 13 9 3 6 4 3 5 4 2 1 2 4 5 6 8 8 8 5 5 10 17 22 23 26 27 28 27 27 27 27 26 28 31 33 35 37 38 38 37 32 28 28 30 30 30 31 31 32 36 41 44 44 45 44 41 38 34 29 26 23 19 15 14 15 14 14 13 14 15 16 16 16
4 1 4 4 5 3 4 4 3 2 3 4 4 7 13 14 7 6 3 4 6 6 5 3 5 6 5 7 6 2 1 4 8 17 24 25 25 27 28 28 29 29 29 30 29 31 33 35 37 39 38 35 32 29 28 29 30 31 29 28 29 33 39 44 45 45 45 43 40 37 32 29 27 23 18 15 14 14 13 12 12 13 13 12 12 11
4 2 1 3 5 5 5 4 2 1 2 3 5 6 10 13 8 4 3 5 7 7 4 2 5 6 6 7 6 5 9 14 19 26 30 28 27 29 29 29 29 29 30 32 33 35 36 36 37 36 33 30 29 29 29 29 31 31 28 26 30 35 40 44 45 46 43 39 36 33 29 28 26 22 18 15 13 12 11 10 9 7 7 8 10 12
3 3 2 1 2 2 2 3 2 2 2 4 6 7 5 4 1 2 5 11 11 9 6 5 8 9 9 11 12 14 19 23 26 29 30 28 28 29 29 29 30 31 33 35 36 35 34 34 34 31 28 26 25 25 26 29 31 29 26 26 31 37 40 42 44 43 38 33 31 30 28 27 25 21 17 14 11 9 6 2 2 4 7 9 11 13
2 3 3 2 1 1 1 1 1 0 3 5 5 3 1 2 2 7 13 16 14 11 10 12 12 12 14 16 18 21 23 24 24 25 27 28 29 28 28 29 30 33 35 38 37 33 30 31 30 27 24 21 19 19 20 23 26 25 25 28 35 40 42 41 38 36 32 29 29 29 27 25 22 18 14 11 8 5 5 8 7 6 7 8 10 13
2 1 1 1 1 0 1 1 2 2 5 6 5 3 3 4 7 11 10 11 11 10 11 13 14 14 16 18 19 21 22 23 23 23 25 28 27 26 27 29 31 33 37 39 35 29 26 28 28 24 19 15 14 15 15 15 17 19 21 25 32 38 39 38 35 34 33 31 29 27 24 20 17 13 11 9 8 9 11 11 8 6 5 6 9 12
1 1 2 3 2 2 4 5 6 7 7 4 4 5 4 4 6 7 8 10 12 12 12 13 13 14 15 16 17 19 21 22 24 24 25 26 25 25 27 30 32 36 38 35 30 24 24 26 24 19 16 15 16 16 14 9 10 18 23 25 28 31 36 38 37 35 33 29 25 22 19 15 13 11 10 10 10 9 8 8 9 7 5 6 9 13
2 2 2 3 2 4 6 6 7 8 10 8 5 5 4 8 10 11 12 14 15 16 16 15 15 16 16 16 17 19 22 24 25 25 25 25 26 27 28 32 36 36 33 28 25 23 23 23 21 18 17 16 16 15 9 4 14 23 27 28 30 33 36 37 35 32 29 25 21 19 16 14 13 11 9 8 6 4 3 5 9 9 6 8 10 13
4 5 3 2 2 4 4 4 6 12 16 15 11 8 10 14 15 14 14 16 18 20 19 18 17 18 19 20 22 24 25 24 24 25 26 26 27 29 30 33 36 32 26 24 24 24 23 22 19 17 15 13 14 14 5 12 21 25 28 30 32 34 35 33 32 30 26 22 20 18 16 14 12 10 7 5 3 2 1 4 9 10 8 9 11 11
5 8 6 3 3 3 5 9 16 21 21 18 14 14 17 18 17 16 17 18 20 20 19 19 19 21 23 25 27 28 27 25 24 25 26 26 28 29 31 33 32 27 24 24 24 23 22 18 16 15 15 14 15 12 6 18 22 24 28 30 30 32 33 31 29 28 24 20 18 17 14 13 11 9 7 4 3 3 2 5 8 9 10 11 11 10
9 8 5 3 5 6 7 12 17 17 16 16 17 20 23 21 18 19 21 21 21 22 22 21 22 23 25 27 27 26 26 24 24 24 25 26 28 29 31 31 28 25 25 23 20 20 18 14 12 14 15 13 11 5 14 23 25 28 32 31 28 28 28 26 26 26 24 19 17 15 14 12 10 8 7 6 4 2 2 6 8 9 12 13 11 10
8 6 5 4 5 6 6 10 12 8 9 16 22 24 23 20 18 20 22 23 23 24 24 24 24 25 26 26 24 24 24 24 23 23 24 26 27 29 29 28 25 23 22 19 17 18 15 11 10 12 11 8 5 11 20 25 27 29 31 30 27 24 23 25 26 26 22 17 15 14 14 12 10 9 9 7 3 1 3 7 9 12 14 13 11 12
10 8 7 5 4 7 13 20 21 13 11 18 24 23 21 20 20 23 25 25 24 24 23 23 25 25 25 24 23 23 24 25 24 24 25 25 26 28 27 24 22 21 19 17 15 13 11 9 10 10 5 4 11 21 26 27 27 26 26 26 25 22 23 25 25 22 18 15 15 15 14 13 11 9 8 5 2 1 5 9 12 13 14 13 13 15
Wind_Direction
186 212 272 219 229 232 234 212 189 190 165 170 111 126 219 264 303 281 280 319 330 143 106 184 214 250 253 281 264 242 233 180 175 172 180 187 187 187 187 186 187 188 190 192 194 197 200 204 206 206 203 202 202 201 201 201 200 198 191 183 172 166 166 164 159 152 146 148 150 145 137 124 120 125 132 148 171 223 300 294 272 259 257 252 240 236
114 201 243 228 223 215 223 207 161 134 108 120 91 13 296 286 304 293 299 328 5 108 346 15 39 312 285 286 287 278 277 236 228 198 184 190 192 192 191 190 191 192 192 191 191 194 198 202 205 205 202 201 204 203 202 204 203 199 192 185 178 171 169 164 160 157 156 169 183 157 144 133 121 117 109 103 94 77 65 56 20 345 303 264 249 240
7 235 246 237 221 189 187 135 121 106 86 92 87 48 307 286 294 308 320 330 13 85 304 4 42 301 281 267 270 264 251 253 249 231 206 194 193 195 195 193 192 192 191 189 190 193 197 202 204 203 202 202 206 206 203 203 203 200 191 184 182 176 171 166 165 164 164 180 194 170 156 159 143 138 123 92 78 72 68 66 59 47 28 348 288 256
270 241 242 234 197 157 181 120 83 66 63 91 95 95 282 282 84 316 311 327 3 61 191 46 19 296 292 298 263 221 219 235 246 245 241 216 199 199 199 197 195 191 190 190 190 193 197 201 203 203 203 202 205 207 204 203 203 202 196 188 184 181 177 175 175 173 175 185 193 189 186 198 200 180 154 86 71 66 64 62 56 50 40 23 333 262
240 252 249 202 170 174 175 180 96 89 334 294 162 153 233 275 208 197 265 324 354 351 79 77 16 319 308 317 295 264 228 232 243 242 250 246 219 205 202 200 198 194 193 193 190 193 196 200 205 205 204 202 203 207 207 204 204 205 202 191 187 187 183 184 186 181 184 192 198 200 199 206 209 196 183 84 67 61 61 59 54 51 44 35 23 316
248 260 258 161 183 190 172 202 184 143 180 307 246 198 210 242 243 226 313 20 29 342 310 70 32 301 308 308 271 281 318 292 261 234 239 247 235 212 205 202 200 199 198 197 193 194 198 203 207 206 203 202 202 207 209 207 204 207 206 195 189 192 190 190 192 187 192 204 210 212 209 213 212 198 188 90 65 56 61 60 56 53 48 46 43 36
259 262 233 176 192 191 174 221 221 145 125 301 248 203 202 220 235 260 101 93 101 254 284 51 142 253 306 301 259 268 301 291 278 244 237 244 238 215 207 203 201 201 198 197 194 194 198 203 206 205 203 204 205 207 208 206 206 209 209 200 192 196 198 195 195 193 197 209 218 219 217 221 218 206 199 129 101 27 51 56 53 50 44 47 50 50
286 311 158 149 143 129 126 240 226 135 117 234 242 195 212 232 207 203 141 147 199 227 315 4 123 227 286 266 260 276 296 294 286 266 245 243 236 219 210 205 203 203 198 195 192 193 199 203 207 209 207 206 208 208 207 205 208 211 212 208 199 199 203 200 198 200 202 209 216 217 213 218 218 214 219 202 219 272 352 26 36 43 42 42 46 53
273 284 188 150 125 131 174 220 207 136 128 242 238 191 200 189 171 157 113 136 191 68 321 314 49 240 275 272 284 297 277 287 285 274 257 241 233 220 210 205 205 208 205 199 196 197 201 205 210 213 211 209 208 208 208 208 210 214 214 213 208 202 204 206 204 204 206 210 216 217 215 218 217 214 218 224 241 258 264 279 331 18 36 41 42 46
250 246 226 149 137 196 216 227 182 144 196 244 207 163 71 90 118 106 102 110 41 49 272 270 351 127 273 284 299 308 273 272 275 273 256 239 234 222 210 204 202 202 201 201 200 201 203 207 211 214 212 209 207 209 210 210 213 216 215 215 213 209 207 210 210 209 211 214 217 219 219 222 221 216 218 227 241 246 250 258 266 300 358 34 38 37
267 263 248 158 167 198 201 223 184 169 207 208 137 138 19 17 21 34 68 85 57 340 262 248 195 146 279 286 265 241 251 267 279 286 277 245 229 222 214 208 206 204 202 201 201 203 205 208 210 211 211 209 208 208 209 211 215 217 217 216 215 214 212 215 216 214 215 218 221 221 222 225 224 222 224 229 237 240 245 253 256 267 289 348 20 24
320 304 249 204 195 185 165 231 256 191 164 84 96 114 54 338 1 21 355 39 80 258 264 259 167 134 214 271 256 249 262 275 271 270 283 261 217 218 215 212 214 214 215 211 202 201 203 204 205 206 209 210 208 207 208 214 217 217 218 217 214 215 216 220 223 219 219 222 224 224 224 227 225 227 230 231 236 241 242 246 249 253 261 275 292 324
328 256 268 279 215 184 139 257 304 352 43 81 85 81 85 327 5 11 314 332 214 250 259 259 127 136 232 255 257 264 272 283 284 274 280 256 210 213 215 215 219 219 221 219 207 199 199 201 202 204 207 209 210 210 212 214 216 217 218 217 215 217 219 224 227 223 222 224 227 227 226 228 226 229 233 233 238 243 242 241 240 247 256 265 276 294
326 301 315 357 271 207 148 162 262 317 35 130 145 117 125 118 61 293 274 284 258 262 261 241 195 236 283 264 241 239 258 283 296 307 310 281 225 214 215 215 219 221 221 222 214 203 199 200 202 205 208 210 212 214 214 215 215 216 217 217 217 219 222 225 227 226 224 225 228 229 228 230 230 232 236 238 242 246 247 243 241 244 250 257 267 280
176 303 295 147 277 229 171 183 185 173 157 183 169 133 141 147 148 211 224 216 245 266 280 284 242 203 213 256 258 273 320 341 355 5 2 343 312 247 234 228 221 219 218 219 218 211 203 201 204 206 207 210 213 214 213 214 215 216 216 217 217 221 224 225 226 225 224 226 229 230 228 230 233 238 242 243 245 249 250 247 244 243 245 250 257 265
158 242 253 238 251 156 316 301 162 127 116 249 145 104 145 180 164 183 195 188 188 254 290 295 246 210 199 269 309 356 8 23 35 35 28 16 17 26 14 346 259 222 214 212 213 211 208 205 205 207 209 212 213 213 213 213 214 215 216 217 218 223 228 229 227 225 223 225 230 231 230 230 234 238 241 243 245 247 249 248 247 247 246 246 250 258
135 251 271 318 11 97 46 342 316 181 221 248 121 162 226 168 141 164 261 221 100 204 269 256 248 286 333 312 332 27 30 32 42 40 37 37 38 41 39 36 33 24 232 215 210 208 209 209 209 210 211 214 214 213 213 214 215 215 216 217 218 223 229 231 229 226 224 225 230 233 232 231 234 236 239 243 245 247 248 247 246 247 246 244 246 252
141 267 287 350 7 346 25 5 323 273 106 96 202 229 239 58 84 120 289 345 35 240 273 298 238 272 341 300 331 29 34 29 41 44 39 42 44 40 37 41 41 38 36 29 217 216 214 211 212 215 215 216 216 217 216 216 216 216 216 218 220 223 229 231 230 227 225 226 229 232 232 231 231 232 235 240 244 246 247 247 246 246 246 247 248 249
119 310 290 335 340 307 6 28 344 348 29 69 213 257 220 72 347 90 161 257 262 236 281 309 278 258 204 223 342 31 37 35 43 47 39 35 40 37 32 36 39 39 39 41 37 266 229 218 215 217 219 218 217 217 218 218 217 216 217 219 222 227 231 231 230 228 226 227 229 231 231 231 230 228 229 232 237 242 245 247 248 249 250 250 250 251
87 111 272 306 320 304 359 36 11 331 358 30 16 351 31 153 176 176 180 173 175 207 246 304 314 288 228 209 127 79 69 73 67 60 48 31 33 35 31 29 30 30 29 30 32 30 357 237 227 222 220 221 221 220 219 218 217 217 218 219 221 227 231 231 231 229 227 228 229 231 230 228 227 225 224 227 232 238 243 246 248 249 250 250 251 256
48 96 241 295 332 341 330 101 136 63 347 4 352 335 333 322 225 180 297 132 133 161 188 219 281 266 249 214 139 111 99 102 97 88 74 45 38 35 28 21 17 15 13 13 17 23 27 11 270 239 229 226 224 222 220 218 218 218 219 220 221 224 227 229 231 230 229 228 228 230 229 226 224 223 224 225 230 236 240 243 245 246 247 248 253 258
47 106 192 293 337 320 265 252 192 204 227 194 226 266 268 266 294 355 291 288 110 140 169 170 229 257 251 204 149 121 116 125 107 95 89 60 45 32 21 13 5 2 3 7 10 10 11 15 10 316 253 236 227 224 222 220 219 219 220 222 223 225 227 229 232 232 230 227 228 231 231 226 224 224 225 226 229 233 236 240 242 244 246 250 255 259
144 106 124 242 250 241 270 285 303 300 249 179 180 228 216 135 101 142 234 264 225 184 169 132 220 261 256 165 130 126 125 120 95 81 72 54 43 28 13 3 358 356 357 1 7 6 2 1 5 6 323 257 235 229 227 224 221 220 222 225 225 227 229 231 233 234 231 227 227 232 231 227 225 225 225 226 230 232 234 237 240 242 247 251 255 260
109 79 76 295 294 314 314 312 333 359 28 64 343 351 72 76 102 163 194 195 188 224 167 113 263 269 279 350 110 123 114 96 74 58 46 34 30 24 11 1 356 354 353 356 357 356 359 357 352 -0 360 308 252 236 229 225 223 223 226 230 231 231 233 234 235 235 233 228 228 231 230 226 224 225 225 227 230 233 234 236 239 242 245 249 253 260
232 116 96 10 321 332 345 343 344 350 14 47 283 297 74 57 16 0 221 95 184 226 166 155 244 255 268 313 93 119 97 72 48 37 37 31 23 14 4 -0 359 356 354 354 353 349 353 2 3 4 7 349 295 260 243 231 227 228 231 234 233 232 234 235 236 237 235 230 227 228 228 225 225 226 226 227 230 232 234 236 239 241 244 247 253 261
168 201 138 128 239 257 292 281 267 285 302 304 261 260 62 35 353 344 17 55 267 249 169 166 242 267 283 326 13 27 31 26 8 18 34 30 15 1 351 350 354 0 3 358 358 358 359 5 9 8 6 4 345 291 264 248 238 234 234 235 234 233 236 238 240 240 238 233 228 227 227 225 225 226 226 227 230 232 233 235 239 241 243 248 254 261
97 40 165 160 187 205 197 216 224 222 278 290 288 286 290 93 83 71 72 205 214 242 285 231 227 275 292 339 27 7 5 359 343 4 16 4 356 351 347 347 346 353 2 2 360 357 352 350 349 350 351 353 356 339 290 264 252 245 241 239 236 236 239 243 243 241 238 234 229 227 227 226 226 226 226 227 229 231 233 235 239 241 244 249 253 259
88 355 279 190 208 217 195 214 234 232 255 263 273 282 280 138 137 173 223 230 183 106 286 257 207 257 281 36 70 334 320 329 316 335 340 337 350 2 5 4 355 349 348 347 345 341 340 339 336 334 336 337 337 335 328 304 276 258 248 245 244 243 243 245 244 240 237 235 231 229 227 226 227 226 224 226 228 230 231 233 237 240 242 247 252 260
124 269 265 203 246 257 217 223 233 230 248 249 244 262 276 241 190 209 222 212 151 156 251 250 190 237 268 187 153 234 235 230 278 302 321 344 15 25 17 8 357 347 340 336 334 334 334 333 333 333 332 331 329 326 324 322 313 287 263 252 249 248 247 246 243 239 236 235 233 230 227 225 225 224 223 224 226 227 229 232 235 237 239 246 254 262
128 254 264 201 259 289 265 246 239 231 244 253 250 247 244 232 223 224 229 209 182 208 243 247 226 241 256 228 208 242 249 260 322 9 36 44 42 23 4 354 343 336 334 335 334 333 331 328 327 328 328 328 330 329 323 318 318 312 291 268 254 248 244 241 239 236 233 231 229 226 225 225 223 222 222 224 225 225 227 229 231 234 238 247 257 263
54 284 311 52 16 307 281 254 246 247 250 256 268 265 197 238 245 243 243 222 214 243 248 249 257 263 268 261 260 0 58 48 48 55 51 43 34 14 359 347 338 334 334 334 331 328 325 320 317 315 316 319 324 325 320 317 315 310 302 288 271 259 248 239 234 229 226 225 223 222 226 228 226 224 225 226 224 223 225 227 230 234 242 253 260 266
14 298 347 46 18 291 273 258 270 332 314 281 269 170 208 252 258 245 241 221 212 243 259 280 282 274 283 291 329 61 75 71 57 44 30 21 12 -0 348 339 336 337 335 329 321 316 313 309 307 306 305 305 309 312 313 314 311 303 297 292 284 275 263 253 246 238 230 225 223 224 226 227 227 229 229 227 225 224 225 226 229 237 248 257 263 270
180 235 315 71 346 272 269 281 352 14 332 287 250 191 202 234 253 279 295 270 228 221 237 249 242 239 260 315 20 40 54 63 46 19 7 357 347 341 337 338 344 340 332 326 319 313 308 304 303 302 300 297 298 302 305 307 306 303 299 293 286 280 272 263 254 248 241 234 232 231 227 223 226 229 226 225 227 226 223 224 231 241 250 258 266 271
224 226 238 169 156 257 271 337 18 343 281 258 233 187 175 185 197 205 239 244 234 204 171 192 221 243 257 72 66 23 12 29 16 353 343 335 332 336 339 343 344 335 327 323 320 316 312 308 305 304 302 300 297 296 296 297 297 297 297 293 287 278 271 264 255 244 237 234 233 231 226 223 223 221 218 222 225 223 222 226 233 242 252 260 265 266
251 241 241 186 159 236 275 47 348 272 246 229 250 238 190 148 151 193 220 217 221 209 137 141 187 222 154 98 62 0 348 356 354 350 2 2 341 342 344 338 333 329 325 322 318 315 312 310 308 307 305 302 298 295 293 290 289 291 290 287 283 279 272 264 254 241 231 228 227 225 224 223 219 214 213 216 216 217 222 227 234 246 252 256 260 262
229 220 218 214 186 206 143 142 227 261 267 276 297 296 288 326 88 243 284 279 255 238 148 146 181 207 194 182 348 345 342 345 0 110 106 21 338 330 328 323 320 319 317 317 316 312 311 310 309 308 307 304 301 297 294 290 287 286 284 279 276 277 271 260 249 236 225 221 221 222 222 219 213 211 209 206 208 216 223 226 232 240 247 253 261 267
212 196 194 227 212 195 200 204 248 308 311 285 270 267 261 230 168 177 227 261 276 271 149 151 186 228 231 282 337 348 346 345 356 144 168 326 324 321 321 318 314 311 309 310 311 310 308 307 306 305 305 303 301 297 295 292 287 282 279 271 266 268 264 252 242 232 224 219 216 213 210 204 203 205 202 200 207 216 220 224 230 238 247 257 265 271
213 193 175 201 209 175 205 246 286 301 283 267 261 294 322 334 151 136 120 266 276 271 160 149 183 269 310 341 347 353 353 348 329 261 302 320 320 317 318 317 314 311 309 308 309 307 306 305 304 303 303 303 301 297 295 292 286 281 275 265 258 260 256 244 235 229 222 215 207 201 197 196 196 197 194 195 205 212 219 229 236 243 253 262 269 276
251 202 153 173 220 145 161 225 246 236 248 280 307 328 347 357 94 100 59 293 268 288 314 340 302 301 321 330 333 349 355 341 286 287 305 315 314 312 312 313 312 312 310 308 307 306 305 305 304 303 304 303 300 297 294 290 284 280 274 261 254 254 246 234 228 222 215 207 198 193 192 190 188 188 188 191 203 213 223 233 240 251 261 268 276 285
344 20 125 173 228 201 178 217 242 223 250 315 330 324 331 337 5 62 48 266 263 295 316 306 284 295 310 305 305 326 280 257 274 295 305 309 308 307 308 309 309 309 308 307 306 305 304 304 304 305 305 303 300 297 294 286 281 279 273 259 253 248 234 224 220 215 207 198 191 189 188 183 181 184 187 194 206 215 226 237 246 258 268 278 291 306
353 343 150 192 236 235 219 232 273 282 261 294 301 297 316 336 6 97 185 257 274 282 287 244 258 273 279 283 281 259 264 280 291 298 303 306 306 307 307 307 306 305 305 305 306 306 305 304 305 305 304 302 298 295 290 281 275 276 273 259 250 242 226 213 207 203 196 188 184 184 182 177 177 178 178 185 198 209 222 238 250 267 290 315 324 324
339 327 327 339 287 252 215 222 268 311 281 257 271 286 310 349 52 202 283 307 294 272 270 277 274 276 277 278 281 281 286 293 296 298 301 305 308 309 307 306 305 303 303 306 308 308 307 307 307 305 301 297 293 289 284 274 269 272 270 253 241 232 219 205 196 190 185 179 176 174 172 170 169 168 166 172 185 195 209 248 329 339 336 333 327 321
312 323 325 335 323 312 332 301 174 45 283 259 259 295 323 171 267 306 314 310 294 281 294 297 287 289 291 288 288 290 292 294 295 298 302 306 308 309 305 303 304 303 305 309 309 308 309 310 307 301 294 291 290 290 285 274 268 269 263 241 225 216 208 195 182 173 169 165 164 163 164 163 160 157 157 160 158 129 68 42 25 353 333 327 323 321
316 340 270 305 327 198 216 249 200 228 282 269 244 262 277 277 307 319 318 306 298 302 311 304 294 294 296 293 293 293 291 291 294 298 303 305 307 306 303 302 302 303 307 308 306 307 310 307 301 295 287 282 290 300 303 291 271 253 232 210 198 193 185 173 161 155 153 152 154 156 157 155 152 149 143 126 97 73 58 41 20 350 332 325 322 319
4 55 215 239 251 220 218 240 250 267 290 283 237 242 270 296 313 319 315 307 306 306 303 297 295 295 295 293 293 291 289 289 293 297 301 304 304 302 301 300 302 305 307 306 305 308 310 302 293 287 284 285 295 307 314 299 238 202 183 171 168 164 157 151 149 148 148 148 150 151 149 144 138 133 123 104 80 67 60 36 11 354 327 307 310 315
291 346 270 223 261 308 286 269 280 297 304 306 278 237 277 314 318 321 318 309 304 302 296 290 290 294 296 292 290 289 290 292 294 296 300 301 301 300 300 300 304 307 306 304 305 308 306 297 284 282 293 299 305 313 311 205 160 151 146 145 147 145 142 142 145 144 144 146 145 143 139 133 130 128 120 108 89 78 66 20 10 4 338 308 307 315
306 348 341 235 262 322 294 277 309 306 299 301 297 281 300 317 318 319 319 312 308 304 296 289 289 294 296 296 294 292 292 293 296 298 298 298 297 298 300 303 308 309 306 306 307 305 302 293 278 283 302 311 315 317 287 163 145 138 137 138 137 135 135 139 141 140 139 137 135 135 133 131 135 136 123 112 113 155 253 356 12 14 354 324 315 319
312 343 340 280 260 270 261 282 296 295 291 295 296 296 306 313 312 311 312 313 311 305 294 287 289 294 298 300 299 294 290 292 296 298 296 295 294 297 302 307 310 308 306 306 304 299 298 288 275 289 309 312 315 313 215 166 151 143 141 137 134 135 138 141 141 137 132 127 127 135 138 134 134 135 132 138 166 201 270 348 9 8 349 332 325 329
279 301 297 272 290 290 279 289 297 298 299 301 302 305 308 308 307 307 308 308 309 305 297 290 289 294 298 299 298 294 289 292 298 298 293 292 293 298 304 308 308 307 306 305 299 295 290 273 268 295 308 307 307 271 179 163 149 143 142 141 144 145 144 145 144 139 134 129 125 130 136 136 134 140 155 169 180 213 321 359 7 357 344 338 336 343
267 274 257 252 287 283 271 284 291 294 295 296 302 309 310 307 305 304 303 304 304 304 300 293 290 295 296 293 294 294 292 297 301 297 290 290 296 303 307 306 305 304 303 301 296 286 268 249 270 300 305 295 252 182 163 152 148 150 151 150 153 152 147 147 144 140 139 132 115 115 131 145 152 161 167 171 186 270 351 12 6 353 346 346 349 358
240 245 247 239 244 253 265 279 284 282 277 287 300 308 308 307 305 301 299 299 298 298 298 291 289 295 296 294 294 293 293 298 299 293 290 294 301 305 305 302 302 302 298 296 291 268 237 242 282 294 276 217 185 171 159 150 151 155 153 151 153 151 149 146 140 137 137 128 115 122 140 153 161 163 162 171 218 355 27 22 10 359 358 3 8 12